SCP
0 0 0 0 0 0 0 0 0 0 0 0 0 0 1 1 0 0 0 0 0 0 0 0 0 0 0 0 0 0 0 0 0 0 0 0 0 0
0 0 0 0 0 0 0 0 0 0 0 0 0 0 1 0 0 0 1 0 0 0 0 0 0 0 0 0 0 0 0 0 0 0 0 0 0 0
0 0 0 0 0 0 0 0 0 0 0 0 0 1 1 1 1 1 1 0 0 0 0 0 0 0 0 0 0 0 0 0 0 0 0 0 0 0
1 0 0 0 0 0 0 0 0 0 1 1 1 1 1 1 1 1 1 1 0 0 0 0 0 0 0 0 0 0 0 0 0 0 0 0 0 0
1 1 1 1 1 1 1 1 1 1 1 1 1 1 1 1 1 1 1 1 1 0 0 0 0 0 0 0 0 0 0 0 0 0 0 0 0 0
1 1 1 1 1 1 1 1 1 1 1 1 1 1 1 1 1 1 1 1 1 0 0 0 0 0 0 0 0 0 0 0 0 0 0 0 0 0
1 1 1 1 1 1 1 1 1 1 1 1 1 1 1 1 1 1 1 1 1 1 1 0 0 0 0 -0 -0 0 0 0 0 0 0 0 0 0
1 1 1 1 1 1 1 1 1 1 1 1 1 1 1 1 1 1 1 1 1 1 1 1 0 0 0 -0 -0 0 0 0 0 0 0 0 0 0
1 1 1 1 1 1 1 0 0 0 0 1 1 1 1 1 1 1 1 1 1 1 1 1 0 0 0 0 0 0 0 0 0 0 0 0 0 0
1 1 1 1 1 1 1 1 1 1 0 0 0 1 1 1 1 1 1 1 1 1 1 1 1 0 0 0 0 0 0 0 0 0 0 0 0 0
1 1 1 1 0 0 0 1 1 1 1 0 0 0 0 0 1 1 1 1 0 1 1 1 1 1 0 0 0 0 0 0 0 0 0 0 0 0
1 1 0 0 0 0 0 0 1 1 1 0 0 0 0 0 0 1 1 1 0 1 1 1 1 1 0 0 0 0 0 0 0 0 0 0 0 0
1 0 0 0 0 0 0 0 0 0 0 0 0 0 1 1 1 1 1 1 0 1 1 1 1 1 0 0 0 0 0 0 0 0 0 0 0 0
0 0 0 0 0 0 0 0 0 0 0 0 0 0 1 1 1 1 1 1 1 1 1 1 1 1 0 0 0 0 0 0 0 0 0 0 0 0
0 0 0 0 0 0 0 0 0 0 0 0 0 0 0 1 1 1 1 1 1 1 1 1 1 0 0 0 0 0 0 0 0 0 0 0 0 0
0 0 0 0 0 0 0 0 0 0 0 0 0 0 1 1 1 1 1 1 1 1 1 1 1 1 0 0 0 0 0 0 0 0 0 0 0 0
0 0 0 0 0 0 0 0 0 0 0 0 0 1 0 0 1 1 1 1 1 1 1 1 1 1 1 0 0 0 0 0 0 0 0 0 0 0
0 0 0 0 0 0 0 0 0 0 0 0 0 0 0 0 0 0 1 1 1 0 0 1 1 0 0 0 0 0 0 0 0 0 0 0 0 0
0 0 0 0 0 0 0 0 0 0 0 0 0 0 0 0 0 0 0 0 0 0 0 0 0 0 0 0 0 0 0 0 0 0 0 0 0 0
0 0 0 0 0 0 0 0 0 0 0 0 0 0 0 0 0 0 0 0 0 0 0 0 0 0 0 0 0 0 0 0 0 0 0 0 0 0
0 0 0 0 0 0 0 0 0 0 0 0 0 0 0 0 0 0 0 0 0 0 0 0 0 0 0 0 0 0 0 0 0 0 0 0 0 0
0 0 0 0 0 0 0 0 0 0 0 0 0 0 0 0 0 0 0 0 0 0 0 0 0 0 0 0 0 0 0 0 0 0 0 0 0 0
0 0 0 0 0 0 0 0 0 0 0 0 0 0 0 0 0 0 0 0 0 0 0 0 0 0 0 0 0 0 0 0 0 0 0 0 0 0
Wind_Speed
2 2 2 2 2 2 2 2 2 2 2 2 1 3 3 3 6 5 5 9 10 10 10 9 8 8 8 7 7 7 7 6 6 6 7 7 7 7
2 2 2 2 2 2 2 2 2 2 2 2 1 2 2 3 6 5 5 10 11 11 11 11 10 10 9 9 8 8 7 7 7 7 7 7 7 7
2 2 2 2 2 2 2 2 2 2 2 2 1 1 1 1 2 3 4 5 6 12 12 12 12 11 11 10 9 9 8 8 8 7 7 7 7 7
3 3 3 2 3 3 3 2 2 2 2 3 2 1 2 2 3 4 4 5 5 10 13 14 13 12 12 11 10 10 9 8 8 7 7 7 7 7
3 3 3 2 3 2 2 3 3 3 2 2 3 1 1 2 2 3 4 3 5 6 11 13 13 13 12 12 11 10 10 9 9 8 8 8 7 7
2 2 1 2 2 3 2 3 3 3 3 3 3 2 2 2 2 2 3 2 3 4 4 6 10 13 12 12 12 11 11 10 10 10 9 9 8 8
2 1 1 1 1 2 2 2 2 2 3 3 3 2 2 1 2 2 3 2 3 3 2 3 4 5 7 10 12 12 12 12 11 11 10 10 9 9
2 2 2 3 2 2 2 2 2 3 3 3 2 3 3 2 2 3 3 3 3 2 2 3 3 4 5 5 9 13 13 13 12 12 11 10 10 10
2 2 3 2 1 1 2 4 4 4 4 3 3 4 3 3 2 3 3 4 4 3 2 3 2 3 3 5 10 13 14 13 12 12 11 11 10 10
2 2 2 1 2 2 3 3 3 3 4 4 3 4 4 3 3 4 4 5 4 3 2 3 3 3 3 2 8 11 12 12 12 12 12 11 11 10
2 1 1 0 3 3 3 3 3 3 3 4 4 5 5 5 4 3 3 4 4 4 2 3 3 2 2 2 4 9 10 10 11 11 11 11 11 9
1 0 1 1 2 2 2 3 4 4 4 3 4 5 5 5 4 4 4 3 4 3 2 2 3 2 3 2 2 3 5 7 9 10 10 10 10 6
2 1 0 1 1 2 3 3 5 5 5 4 4 3 3 3 3 4 4 3 4 4 2 2 3 3 3 3 2 2 3 3 4 6 8 10 11 9
2 1 1 2 2 3 3 4 6 6 4 4 3 3 3 3 3 4 4 5 5 5 4 3 3 3 4 4 3 2 3 3 3 4 4 6 8 10
2 3 3 3 4 4 5 6 5 3 3 4 4 3 3 3 3 3 3 4 5 5 4 4 4 3 3 4 4 3 3 3 3 3 3 4 5 5
2 3 3 3 4 4 4 3 3 3 3 3 4 3 3 3 3 2 2 2 3 3 3 4 4 4 4 4 3 4 3 2 2 2 2 3 4 4
3 2 2 2 2 2 2 2 2 2 3 3 3 3 4 3 3 2 2 2 3 3 3 3 3 4 4 3 3 3 3 3 2 2 2 3 4 4
2 2 2 2 2 3 3 2 2 2 3 3 3 3 3 3 3 2 2 2 3 3 3 2 2 2 2 2 2 3 2 3 2 3 3 3 3 2
1 2 3 3 3 3 3 3 2 3 3 3 3 3 3 3 3 3 2 2 3 3 3 2 2 2 3 4 3 2 3 3 3 2 3 3 3 3
1 2 2 2 2 3 3 3 3 3 3 3 3 3 3 3 3 3 3 3 3 3 4 3 2 2 3 4 4 3 4 3 3 3 3 2 3 3
2 2 2 3 2 2 3 3 3 3 3 3 3 3 3 3 3 3 3 4 4 4 4 3 3 5 4 3 3 3 2 3 4 3 3 3 3 3
3 3 3 3 3 2 3 3 3 3 4 3 3 3 4 4 4 4 4 4 3 4 5 4 3 3 3 3 4 4 3 2 3 5 5 5 3 3
2 3 3 3 3 4 4 4 4 4 4 5 5 5 5 4 4 4 4 4 4 4 4 4 4 3 3 3 4 4 4 3 2 2 3 4 5 6
Wind_Direction
247 264 259 269 263 255 255 242 240 256 253 234 210 185 173 163 171 179 181 189 193 194 196 199 201 204 207 210 214 215 217 219 222 225 230 235 239 242
234 260 274 267 266 257 252 256 253 246 257 253 231 185 176 192 182 189 188 190 196 196 199 202 204 205 207 209 212 213 214 216 219 222 227 232 235 240
247 251 259 270 280 282 277 268 264 245 250 277 263 194 173 188 183 204 188 191 197 200 201 204 207 209 211 211 212 212 213 216 219 221 226 231 234 237
242 245 253 258 271 279 281 278 277 267 248 258 263 249 228 198 197 216 216 213 205 202 202 205 209 210 212 212 211 210 210 213 217 221 224 228 231 235
249 245 250 249 268 266 277 285 279 276 266 262 264 255 241 226 214 240 241 234 229 213 205 208 212 212 209 210 211 209 208 210 214 219 223 226 229 232
267 264 271 268 276 279 269 279 283 289 283 271 265 260 245 239 222 239 253 242 253 239 219 209 211 210 211 211 212 210 209 210 215 219 222 223 225 228
254 257 270 289 289 272 276 290 288 283 278 270 265 274 272 256 252 255 259 254 254 243 222 223 199 203 210 218 217 215 212 212 214 217 219 221 223 226
247 246 239 249 246 230 242 263 267 271 288 290 282 272 268 263 269 277 278 275 272 249 233 250 220 209 208 207 207 207 209 211 213 216 218 222 225 227
268 269 272 286 254 255 239 246 258 263 252 266 288 290 288 283 266 267 275 277 269 263 247 256 242 236 230 213 199 202 205 208 212 216 219 221 224 227
261 271 286 336 322 316 286 264 253 256 254 244 257 272 285 303 282 266 266 269 270 263 238 257 258 254 258 225 203 201 205 209 212 216 218 221 226 230
273 303 303 329 326 323 298 290 285 274 259 252 245 253 262 272 276 285 282 274 274 271 245 247 260 274 264 231 211 206 211 213 216 219 220 222 226 230
289 15 39 343 318 331 302 299 290 291 294 279 271 267 262 261 253 239 259 275 282 278 256 245 262 272 269 245 207 202 216 223 221 221 222 222 221 222
292 293 301 321 308 303 292 288 288 295 290 275 266 259 256 252 244 235 234 239 257 264 277 259 264 261 256 268 259 220 208 214 214 224 224 223 220 216
309 319 318 306 295 287 281 288 297 300 290 284 278 276 270 264 255 243 237 234 234 240 254 258 256 256 266 269 264 236 226 218 208 214 216 219 224 229
321 328 312 298 300 289 274 281 288 283 283 283 283 282 276 269 265 258 246 242 249 249 242 242 248 252 251 263 265 253 252 237 216 218 215 212 219 222
312 306 288 272 278 285 290 282 267 269 276 279 286 288 288 281 274 270 267 266 262 262 249 245 245 243 252 258 258 262 257 241 229 234 240 240 228 220
312 288 287 295 293 288 290 290 278 270 269 274 281 289 291 288 284 286 278 276 275 279 281 271 253 245 235 237 246 255 264 263 250 246 250 253 244 232
333 310 319 320 316 309 306 305 303 304 298 288 284 289 294 297 297 298 301 300 293 290 291 291 289 286 284 276 239 250 263 264 270 260 257 258 262 248
326 312 320 324 329 331 330 329 324 319 315 314 318 313 307 303 303 303 300 297 292 290 288 282 277 266 271 278 283 256 254 259 263 260 255 258 266 261
292 309 317 328 340 338 336 335 338 340 335 331 331 330 328 319 311 306 299 290 284 279 280 276 271 256 252 265 276 277 254 238 243 257 263 269 272 262
341 342 335 339 345 341 340 341 340 339 335 334 340 336 327 318 316 313 308 304 294 287 285 281 270 260 257 263 274 278 279 263 245 242 246 256 269 273
347 355 352 344 345 350 344 344 343 342 341 344 346 338 326 319 313 309 309 308 304 300 297 293 289 280 270 266 273 277 279 284 277 275 269 244 234 242
354 351 348 351 357 356 349 345 345 353 1 355 346 335 329 324 320 318 317 315 313 310 309 309 303 283 272 265 268 273 275 282 286 299 303 283 249 243